Regional Weather Roundup
Issued by NWS

Home | Current Version | Previous Version | Text Only | Print | Product List | Glossary Off
Versions: 1 2 3 4 5 6 7 8 9 10 11 12 13 14 15 16 17 18 19 20 21 22 23 24 25 26 27 28 29 30 31 32 33 34 35 36 37 38 39 40 41 42 43 44 45 46 47 48 49 50

000
ASUS43 KOAX 180310
RWRNE

WEATHER ROUNDUP FOR NEBRASKA
NATIONAL WEATHER SERVICE OMAHA NE
1000 PM CDT WED SEP 17 2014

NOTES: SATELLITE DATA IS BEING USED TO AUGMENT CLOUD COVER ABOVE
       12000 FEET.
       "FAIR" INDICATES FEW OR NO CLOUDS BELOW 12,000 FEET WITH NO
       SIGNIFICANT WEATHER AND/OR OBSTRUCTIONS TO VISIBILITY.

  * THESE STATIONS DO NOT REPORT WEATHER SUCH AS RAIN...SNOW OR FOG.

NEZ001>004-019>022-054>056-180400-
NEBRASKA PANHANDLE

CITY           SKY/WX    TMP DP  RH WIND       PRES   REMARKS
SCOTTSBLUFF    CLEAR     64  48  56 NE7       29.96R
ALLIANCE       MOCLDY    65  53  65 SE12      29.96R
CHADRON        CLEAR     70  52  52 NE3       29.93R
KIMBALL        PTCLDY    65  45  46 CALM      30.02R
SIDNEY         MOCLDY    70  47  43 SE6       30.00R
$$

NEZ057>060-069>072-079>082-180400-
SOUTHWEST NEBRASKA

CITY           SKY/WX    TMP DP  RH WIND       PRES   REMARKS
NORTH PLATTE   CLEAR     61  58  90 E8        29.95R
IMPERIAL       PTCLDY    71  59  65 SE13      29.94R
LEXINGTON      CLEAR     67  62  84 E6        29.95R
MCCOOK         PTCLDY    68  61  78 E9        29.92S
OGALLALA       PTCLDY    69  61  75 E6        29.95R
$$

NEZ005>010-023>029-035>040-094-180400-
NORTH CENTRAL NEBRASKA

CITY           SKY/WX    TMP DP  RH WIND       PRES   REMARKS
VALENTINE      PTCLDY    65  55  70 E9        29.97R
AINSWORTH      PTCLDY    62  55  80 E9        29.97S
BROKEN BOW     CLEAR     67  62  84 SE8       29.96R
O`NEILL        PTCLDY    63  59  87 E8        29.98R
ORD            PTCLDY    62  60  93 CALM      29.95R
THEDFORD       CLEAR     66  58  76 SE3       29.96F
$$

NEZ041-046>049-061>064-073>077-083>087-180400-
SOUTH CENTRAL NEBRASKA

CITY           SKY/WX    TMP DP  RH WIND       PRES   REMARKS
GRAND ISLAND   CLEAR     64  61  90 E5        29.96R
AURORA         CLEAR     63  61  93 E5        29.95R
HASTINGS       CLEAR     66  59  78 NE6       29.96R
HEBRON         CLEAR     63  59  88 CALM      29.93R
HOLDREGE       CLEAR     61  58  90 CALM      29.94S
KEARNEY *      CLEAR     63  59  88 E7        29.96R
YORK           PTCLDY    64  63  94 SE3       29.96R
$$

NEZ011>018-030>034-042>045-180400-
NORTHEAST NEBRASKA

CITY           SKY/WX    TMP DP  RH WIND       PRES   REMARKS
NORFOLK        CLEAR     66  61  84 SE5       29.96R
ALBION         MOCLDY    67  60  78 E3        29.96S
BLAIR          CLEAR     67  60  79 E5        29.95R
COLUMBUS *     MOCLDY    64  61  88 E3        29.96S
FREMONT        CLEAR     66  63  90 CALM      29.96R
TEKAMAH        CLEAR     61  59  93 CALM      29.95R
WAYNE          CLEAR     57  55  94 CALM      29.97R
$$

NEZ050>053-065>068-078-088>093-180400-
SOUTHEAST NEBRASKA

CITY           SKY/WX    TMP DP  RH WIND       PRES   REMARKS
LINCOLN        PTCLDY    69  61  75 S3        29.95R
OMAHA EPPLEY   CLEAR     70  59  68 VRB5      29.95R
BEATRICE       CLEAR     66  61  85 E3        29.94R
FALLS CITY     CLEAR     65  63  93 E3        29.94R
NEBRASKA CITY  CLEAR     68  58  69 SE5       29.95R
PLATTSMOUTH    CLEAR     67  60  79 E3        29.96R
$$

NEZ044-045-051>053-067-180400-
OMAHA AREA

CITY           SKY/WX    TMP DP  RH WIND       PRES   REMARKS
OMAHA EPPLEY   CLEAR     70  59  68 VRB5      29.95R
BLAIR          CLEAR     67  60  79 E5        29.95R
FREMONT        CLEAR     66  63  90 CALM      29.96R
MILLARD        CLEAR     66  63  91 CALM      29.94R
OFFUTT AFB     CLEAR     62  62 100 NE5       29.95R
PLATTSMOUTH    CLEAR     67  60  79 E3        29.96R
WAHOO          FAIR      63  60  88 N3        29.95R
$$



USA.gov is the U.S. government's official web portal to all federal, state and local government web resources and services.